Weather History for KANE - March, 2013

Change the Weather History Date:

Saturday, March 16, 2013

  Actual Average Record
Temperature  
Mean Temperature 18 °F -  
Max Temperature 24 °F 36 °F 80 °F (2012)
Min Temperature 12 °F 19 °F 3 °F (1997)
Degree Days  
Heating Degree Days 47    
Moisture  
Dew Point 13 °F    
Average Humidity 76    
Maximum Humidity 93    
Minimum Humidity 50    
Precipitation  
Precipitation 0.00 in - - ()
Sea Level Pressure  
Sea Level Pressure 30.06 in    
Wind  
Wind Speed 11 mph (NNW)    
Max Wind Speed 15 mph    
Max Gust Speed 20 mph    
Visibility 10 miles    
Events      
Averages and records for this station are not official NWS values.
T = Trace of Precipitation, MM = Missing Value Source: NWS Daily Summary

Daily Weather History Graph

Daily Weather History Graph

Search for Another Location

Airport or City:

Trip Planner

Search our weather history database for the weather conditions in past years. The results will help you decide how hot, cold, wet, or windy it might be!

Date:

Astronomy

Mar. 16, 2013 Rise Set
Actual Time 7:22 AM CDT 7:20 PM CDT
Civil Twilight 6:53 AM CDT 7:49 PM CDT
Nautical Twilight 6:19 AM CDT 8:24 PM CDT
Astronomical Twilight 5:44 AM CDT 8:59 PM CDT
Moon 9:39 AM CDT (3/16) No Moon Set
Length of Visible Light 12h 56m
Length of Day
11h 57m
Waxing Crescent, 23% of the Moon is Illuminated
Mar 16
Waxing Crescent
Mar 19
First Quarter
Mar 27
Full
Apr 2
Last Quarter
Apr 10
New

Hourly Weather History & Observations

Time (CDT) Temp. Windchill Dew Point Humidity Pressure Visibility Wind Dir Wind Speed Gust Speed Precip Events Conditions
12:34 AM 24.8 °F 15.3 °F 21.2 °F 86% 29.91 in 10.0 mi North 9.2 mph - N/A   Overcast
12:54 AM 24.8 °F 14.6 °F 21.2 °F 86% 29.92 in 10.0 mi North 10.4 mph - N/A   Overcast
1:14 AM 24.8 °F 13.4 °F 21.2 °F 86% 29.92 in 10.0 mi North 12.7 mph - N/A   Overcast
1:34 AM 23.0 °F 11.7 °F 21.2 °F 93% 29.92 in 10.0 mi North 11.5 mph - N/A   Overcast
1:54 AM 23.0 °F 10.1 °F 19.4 °F 86% 29.93 in 7.0 mi North 15.0 mph - N/A   Overcast
2:14 AM 21.2 °F 8.3 °F 19.4 °F 93% 29.93 in 10.0 mi NNE 13.8 mph 18.4 mph N/A   Overcast
2:34 AM 21.2 °F 9.5 °F 19.4 °F 93% 29.94 in 10.0 mi North 11.5 mph 17.3 mph N/A   Overcast
2:54 AM 21.2 °F 9.5 °F 19.4 °F 93% 29.95 in 10.0 mi North 11.5 mph - N/A   Overcast
3:14 AM 21.2 °F 8.9 °F 17.6 °F 86% 29.94 in 10.0 mi North 12.7 mph - N/A   Overcast
3:34 AM 21.2 °F 10.1 °F 17.6 °F 86% 29.95 in 10.0 mi North 10.4 mph - N/A   Overcast
3:53 AM 21.2 °F 8.9 °F 17.6 °F 86% 29.96 in 10.0 mi North 12.7 mph 18.4 mph N/A   Overcast
4:14 AM 21.2 °F 8.3 °F 17.6 °F 86% 29.96 in 10.0 mi North 13.8 mph 19.6 mph N/A   Overcast
4:33 AM 21.2 °F 8.9 °F 17.6 °F 86% 29.97 in 10.0 mi North 12.7 mph 17.3 mph N/A   Overcast
4:54 AM 21.2 °F 10.1 °F 17.6 °F 86% 29.98 in 10.0 mi North 10.4 mph 16.1 mph N/A   Overcast
5:14 AM 21.2 °F 10.9 °F 17.6 °F 86% 30.00 in 10.0 mi North 9.2 mph - N/A   Overcast
5:33 AM 21.2 °F 10.1 °F 17.6 °F 86% 30.01 in 7.0 mi North 10.4 mph - N/A   Overcast
5:54 AM 19.4 °F 7.2 °F 15.8 °F 86% 30.01 in 10.0 mi North 11.5 mph - N/A   Overcast
6:14 AM 19.4 °F 8.6 °F 15.8 °F 86% 30.02 in 10.0 mi North 9.2 mph - N/A   Mostly Cloudy
6:33 AM 19.4 °F 9.5 °F 15.8 °F 86% 30.03 in 10.0 mi NNW 8.1 mph - N/A   Clear
6:50 AM 17.6 °F 6.4 °F 15.8 °F 93% 30.04 in 10.0 mi NE 9.2 mph - N/A   Clear
6:54 AM 17.6 °F 6.4 °F 14.0 °F 86% 30.04 in 5.0 mi NNW 9.2 mph - N/A   Clear
7:50 AM 15.8 °F 4.2 °F 14.0 °F 93% 30.08 in 10.0 mi NNW 9.2 mph - N/A   Clear
9:00 AM 17.6 °F 6.4 °F 14.0 °F 86% 30.10 in 10.0 mi NNW 9.2 mph - N/A   Clear
9:45 AM 19.4 °F 8.6 °F 12.2 °F 74% 30.11 in 10.0 mi NNW 9.2 mph - N/A   Clear
10:45 AM 21.2 °F 12.6 °F 15.8 °F 80% 30.11 in 10.0 mi NNW 6.9 mph - N/A   Scattered Clouds
11:55 AM 23.0 °F 14.7 °F 14.0 °F 68% 30.11 in 10.0 mi WNW 6.9 mph - N/A   Scattered Clouds
12:45 PM 23.0 °F 14.7 °F 14.0 °F 68% 30.12 in 10.0 mi NW 6.9 mph - N/A   Mostly Cloudy
1:45 PM 24.8 °F 14.6 °F 14.0 °F 64% 30.13 in 10.0 mi WNW 10.4 mph 16.1 mph N/A   Mostly Cloudy
2:45 PM 24.8 °F 12.4 °F 12.2 °F 59% 30.12 in 10.0 mi West 15.0 mph - N/A   Scattered Clouds
3:45 PM 24.8 °F 15.3 °F 12.2 °F 59% 30.10 in 10.0 mi WNW 9.2 mph - N/A   Clear
4:45 PM 24.8 °F 12.9 °F 8.6 °F 50% 30.09 in 10.0 mi NW 13.8 mph - N/A   Clear
5:45 PM 24.8 °F 12.4 °F 8.6 °F 50% 30.09 in 10.0 mi NW 15.0 mph - N/A   Clear
6:45 PM 21.2 °F 9.5 °F 8.6 °F 58% 30.11 in 10.0 mi WNW 11.5 mph - N/A   Clear
7:45 PM 19.4 °F 7.2 °F 6.8 °F 58% 30.14 in 10.0 mi NW 11.5 mph - N/A   Mostly Cloudy
8:45 PM 17.6 °F 8.2 °F 6.8 °F 63% 30.17 in 10.0 mi WNW 6.9 mph - N/A   Mostly Cloudy
9:13 PM 17.6 °F 8.2 °F 6.8 °F 63% 30.18 in 10.0 mi West 6.9 mph - N/A   Clear
9:34 PM 17.6 °F 5.7 °F 6.8 °F 63% 30.18 in 10.0 mi WNW 10.4 mph - N/A   Clear
9:54 PM 17.6 °F 5.0 °F 6.8 °F 63% 30.18 in 10.0 mi WNW 11.5 mph - N/A   Clear
10:13 PM 15.8 °F 3.4 °F 6.8 °F 68% 30.18 in 10.0 mi WNW 10.4 mph - N/A   Clear
10:34 PM 15.8 °F 2.1 °F 5.0 °F 62% 30.19 in 10.0 mi NW 12.7 mph - N/A   Clear
10:54 PM 15.8 °F 4.2 °F 5.0 °F 62% 30.21 in 10.0 mi WNW 9.2 mph - N/A   Clear
11:13 PM 14.0 °F 1.2 °F 3.2 °F 62% 30.21 in 10.0 mi NW 10.4 mph - N/A   Clear
11:34 PM 12.2 °F -0.2 °F 3.2 °F 67% 30.22 in 10.0 mi NW 9.2 mph - N/A   Clear
11:54 PM 12.2 °F 0.7 °F 3.2 °F 67% 30.23 in 10.0 mi NW 8.1 mph - N/A   Clear